^^
Saratoga-Weather Station Historical Data
Daily Summary for July 13, 2021 Units:  Metric    English   Both
Daily Weekly Monthly Yearly Custom
  High: Low: Average:
Temperature: 21 °C 18.3 °C 19.5 °C
Dew Point: 18.7 °C 17.3 °C 18 °C
Humidity: 94% 83% 91%
Wind Speed: 3.2km/h 0km/h 0.2km/h
Wind Gust: 4.8km/h - -
Wind- - West
Pressure: 1018.3 hPa 1018.0 hPa -
Precipitation: 0.5 mm    
Historical Graphs
 
 
Tabular Data for July 13, 2021
Time Temperature Dew Point Pressure Wind Wind Speed Wind Gust Humidity Rainfall Rate (Hourly) solar
00:02 20.7 °C 17.9 °C 1018.0 hPa Calm     84% 0.0 mm 0 W/m2
00:07 20.8 °C 18 °C 1018.0 hPa Calm     84% 0.0 mm 0 W/m2
00:12 20.9 °C 17.9 °C 1018.0 hPa Calm     83% 0.0 mm 0 W/m2
00:17 20.9 °C 17.9 °C 1018.3 hPa Calm     83% 0.0 mm 0 W/m2
00:27 21 °C 18 °C 1018.3 hPa Calm     83% 0.0 mm 0 W/m2
00:32 21 °C 18.2 °C 1018.3 hPa Calm     84% 0.0 mm 0 W/m2
00:37 21 °C 18.2 °C 1018.3 hPa Calm     84% 0.0 mm 0 W/m2
00:42 21 °C 18.2 °C 1018.3 hPa Calm     84% 0.0 mm 0 W/m2
00:47 20.9 °C 18.1 °C 1018.3 hPa Calm     84% 0.0 mm 0 W/m2
00:52 20.9 °C 18.1 °C 1018.3 hPa Calm     84% 0.0 mm 0 W/m2
00:57 20.9 °C 18.1 °C 1018.3 hPa Calm   3.2 km/h 84% 0.0 mm 0 W/m2
01:02 20.9 °C 18.3 °C 1018.3 hPa Calm   1.6 km/h 85% 0.0 mm 0 W/m2
01:07 20.8 °C 18.6 °C 1018.3 hPa Calm   3.2 km/h 87% 0.0 mm 0 W/m2
01:12 20.7 °C 18.5 °C 1018.3 hPa Calm     87% 0.0 mm 0 W/m2
01:17 20.6 °C 18.5 °C 1018.3 hPa Calm     88% 0.0 mm 0 W/m2
01:22 20.6 °C 18.7 °C 1018.3 hPa Calm     89% 0.0 mm 0 W/m2
01:27 20.4 °C 18.5 °C 1018.3 hPa Calm   1.6 km/h 89% 0.0 mm 0 W/m2
01:32 20.3 °C 18.4 °C 1018.3 hPa Calm   1.6 km/h 89% 0.0 mm 0 W/m2
01:37 20.2 °C 18.5 °C 1018.3 hPa Calm     90% 0.0 mm 0 W/m2
01:42 20.2 °C 18.5 °C 1018.3 hPa Calm   1.6 km/h 90% 0.5 mm 0 W/m2
01:47 20.1 °C 18.4 °C 1018.0 hPa Calm     90% 0.5 mm 0 W/m2
01:52 19.9 °C 18.4 °C 1018.3 hPa SW 1.4 km/h 3.2 km/h 91% 0.5 mm 0 W/m2
01:57 19.8 °C 18.3 °C 1018.3 hPa Calm     91% 0.5 mm 0 W/m2
02:02 19.7 °C 18.4 °C 1018.0 hPa Calm   3.2 km/h 92% 0.5 mm 0 W/m2
02:07 19.6 °C 18.3 °C 1018.0 hPa Calm     92% 0.5 mm 0 W/m2
02:12 19.5 °C 18.2 °C 1018.3 hPa Calm     92% 0.5 mm 0 W/m2
02:17 19.4 °C 18.2 °C 1018.3 hPa Calm     93% 0.5 mm 0 W/m2
02:22 19.4 °C 18.2 °C 1018.0 hPa Calm     93% 0.5 mm 0 W/m2
02:27 19.4 °C 18.2 °C 1018.3 hPa Calm     93% 0.5 mm 0 W/m2
02:32 19.4 °C 18.2 °C 1018.0 hPa Calm     93% 0.5 mm 0 W/m2
02:37 19.3 °C 18.1 °C 1018.0 hPa SW 3.2 km/h 3.2 km/h 93% 0.5 mm 0 W/m2
02:42 19.3 °C 18.1 °C 1018.3 hPa WNW 1.4 km/h 3.2 km/h 93% 0.0 mm 0 W/m2
02:47 19.3 °C 18.1 °C 1018.3 hPa Calm   1.6 km/h 93% 0.0 mm 0 W/m2
02:52 19.2 °C 18 °C 1018.3 hPa Calm     93% 0.0 mm 0 W/m2
02:57 19.2 °C 18 °C 1018.3 hPa WNW 1.4 km/h 3.2 km/h 93% 0.0 mm 0 W/m2
03:02 19.1 °C 17.9 °C 1018.3 hPa West 1.4 km/h 4.8 km/h 93% 0.0 mm 0 W/m2
03:07 19.1 °C 17.9 °C 1018.0 hPa West 1.4 km/h 1.6 km/h 93% 0.0 mm 0 W/m2
03:12 19 °C 17.8 °C 1018.0 hPa Calm     93% 0.0 mm 0 W/m2
03:17 18.9 °C 17.7 °C 1018.0 hPa Calm     93% 0.0 mm 0 W/m2
03:22 18.8 °C 17.6 °C 1018.0 hPa West 1.4 km/h 3.2 km/h 93% 0.0 mm 0 W/m2
03:27 18.8 °C 17.6 °C 1018.3 hPa Calm     93% 0.0 mm 0 W/m2
03:32 18.7 °C 17.7 °C 1018.3 hPa Calm   3.2 km/h 94% 0.0 mm 0 W/m2
03:37 18.7 °C 17.7 °C 1018.3 hPa Calm     94% 0.0 mm 0 W/m2
03:42 18.8 °C 17.8 °C 1018.0 hPa Calm     94% 0.2 mm 0 W/m2
03:47 18.8 °C 17.8 °C 1018.3 hPa Calm     94% 0.2 mm 0 W/m2
03:52 18.8 °C 17.8 °C 1018.3 hPa Calm     94% 0.2 mm 0 W/m2
03:57 18.8 °C 17.8 °C 1018.3 hPa Calm     94% 0.2 mm 0 W/m2
04:02 18.7 °C 17.7 °C 1018.3 hPa Calm     94% 0.2 mm 0 W/m2
04:07 18.7 °C 17.7 °C 1018.3 hPa Calm     94% 0.2 mm 0 W/m2
04:12 18.7 °C 17.7 °C 1018.3 hPa Calm     94% 0.2 mm 0 W/m2
04:17 18.8 °C 17.8 °C 1018.3 hPa Calm     94% 0.2 mm 0 W/m2
04:22 18.8 °C 17.8 °C 1018.3 hPa Calm     94% 0.2 mm 0 W/m2
04:27 18.8 °C 17.8 °C 1018.3 hPa Calm     94% 0.2 mm 0 W/m2
04:32 18.7 °C 17.7 °C 1018.3 hPa Calm     94% 0.2 mm 0 W/m2
04:38 18.7 °C 17.7 °C 1018.3 hPa Calm     94% 0.2 mm 0 W/m2
04:43 18.7 °C 17.7 °C 1018.3 hPa Calm     94% 0.0 mm 0 W/m2
04:48 18.7 °C 17.7 °C 1018.3 hPa Calm     94% 0.0 mm 0 W/m2
04:53 18.7 °C 17.7 °C 1018.3 hPa Calm     94% 0.0 mm 0 W/m2
04:58 18.6 °C 17.6 °C 1018.3 hPa Calm     94% 0.0 mm 0 W/m2
05:03 18.6 °C 17.6 °C 1018.3 hPa Calm     94% 0.0 mm 0 W/m2
05:08 18.5 °C 17.5 °C 1018.3 hPa Calm     94% 0.0 mm 0 W/m2
05:13 18.4 °C 17.4 °C 1018.3 hPa Calm     94% 0.0 mm 0 W/m2
05:18 18.4 °C 17.4 °C 1018.3 hPa Calm     94% 0.0 mm 0 W/m2
05:23 18.3 °C 17.3 °C 1018.3 hPa Calm     94% 0.0 mm 0 W/m2
Juneau County Weather
Compliments of Weather Underground - 2 mb